Powrót do katalogu

ONEWEB-0527

AktywnyŁącznośćPO
NORAD 54642·PAYLOAD·🇬🇧 United Kingdom

Wystrzelony Dec 8, 2022 z Cape Canaveral Space Force Station

Loading…

Następne Przeloty (najbliższe 24 godziny)

TLE

ŚwieżeSource: CelesTrak SupGP

Epoka: Sep 14, 2026, 10:42 UTC

1 54642C 22166A   26257.44632361 -.00001139  00000+0 -27606-2 0  2574
2 54642  87.9275 226.2264 0002115  81.8869  30.5362 13.21829681    15

Śledź ONEWEB-0527 w czasie rzeczywistym z AllMySat

Download on the App Store